www.pogodaiklimat.ru

Погода и климат >> Архив погоды >> Швеция >> Паркаломполо


ПОГОДА в Паркаломполо

  • Прогноз погоды в Паркаломполо
  • Монитор погоды в Паркаломполо

АРХИВ ПОГОДЫ в Паркаломполо

Время (UTC), дата Ветер
(напр.,м/с)
 
Видим.   Явления Облачность Т
(С)
Тd
(С)
f
(%)
Тe
(С)
Тes
(С)
Комфортность P
(гПа)
Po
(гПа)
Тmin
(С)
Tmax
(С)
R
(мм)
R24
(мм)
S
(см)
01 10.07 СВ 3
{5}
50 км 10/3 900 м
[]
+8.6 +4.0 73 +6 +6 1016.7 979.0
02 10.07 СВ 2
{5}
50 км 10/10 1050 м
[]
+9.3 +4.1 70 +8 +8 1016.7 979.1
03 10.07 С 3
{5}
50 км 10/10 630 м
[]
+9.6 +4.2 69 +8 +8 1016.8 979.2
04 10.07 СВ 4
{7}
50 км 10/10 700 м
[]
+9.0 +3.3 67 +6 +6 1017.0 979.3
05 10.07 СВ 3
{7}
35 км 10/10 630 м
[]
+8.8 +3.6 70 +6 +6 1016.9 979.2
06 10.07 СВ 4
{7}
50 км 10/10 600 м
[]
+9.1 +3.7 69 +6 +6 1016.9 979.3 +8.5 +18.1
07 10.07 СВ 4
{8}
40 км 10/10 660 м
[]
+9.7 +3.5 65 +7 +7 1016.9 979.3
08 10.07 С 3
{7}
35 км 10/10 700 м
[]
+10.7 +3.7 62 +9 +9 1016.7 979.3
09 10.07 СВ 4
{7}
50 км 10/10 800 м
[]
+10.8 +3.4 60 +9 +10 1016.6 979.2
10 10.07 СВ 3
{6}
35 км 9/5 960 м
[]
+11.5 +3.1 56 +10 +13 1016.3 979.1
11 10.07 С 3
{6}
40 км 9/6 1020 м
[]
+12.0 +3.1 54 +11 +13 1016.2 979.0
12 10.07 СВ 4
{7}
35 км 10/10 1080 м
[]
+12.1 +3.1 54 +10 +10 1016.0 978.8
13 10.07 С 3
{8}
40 км 9/5
[]
+12.3 +2.6 52 +11 +13 1015.7 978.5
14 10.07 СВ 3
{7}
35 км 1/0
[]
+13.7 +2.3 46 +13 +18 1015.2 978.3
15 10.07 СВ 3
{7}
35 км ясно +13.7 +2.3 46 +13 +17 1014.9 978.0
16 10.07 СВ 3
{6}
45 км ясно +14.1 +2.2 45 +13 +16 1014.6 977.7
17 10.07 СВ 4
{5}
35 км ясно +14.1 +2.0 44 +13 +14 1014.4 977.6
18 10.07 СВ 3
{5}
50 км ясно +13.8 +1.7 44 +13 +14 1014.3 977.4 +9.0 +14.5
19 10.07 СВ 2
{5}
50 км 3/3
[]
+13.1 +1.6 46 +13 +13 1014.4 977.4
20 10.07 СВ 1
{3}
50 км 3/3
[]
+11.7 +1.9 51 +12 +12 1014.5 977.3
21 10.07 В 1
{2}
50 км 10/0
[]
+10.7 +1.4 53 +11 +11 1014.4 977.1
22 10.07 штиль 0
{1}
50 км 10/8 1500 м
[]
+9.2 +2.3 62 +9 +9 1014.8 977.2
23 10.07 С 1
{1}
50 км 10/3 1500 м
[]
+7.7 +3.2 73 +7 +7 1014.8 977.0
00 11.07 штиль 0
{1}
50 км 10/10 1500 м
[]
+8.7 +2.1 63 +8 +8 1014.4 976.8
01 11.07 штиль 0
{1}
50 км в посл. час дождь {ливн. осадки, метель} 10/9 1500 м
[]
+7.0 +3.3 77 +6 +6 1014.6 976.8
02 11.07 штиль 0
{1}
50 км {ливн. осадки, метель} 10/10 1470 м
[]
+8.1 +3.6 73 +7 +7 1014.2 976.5
03 11.07 штиль 0
{1}
45 км {ливн. осадки, метель} 10/10 1500 м
[]
+8.7 +3.0 67 +8 +8 1013.8 976.3
04 11.07 ЮВ 1
{2}
45 км {ливн. осадки, метель} 10/9 1500 м
[]
+9.4 +1.9 59 +9 +9 1013.4 976.0
05 11.07 Ю 1
{2}
40 км {ливн. осадки, метель} 10/6 1440 м
[]
+10.5 +1.7 54 +11 +11 1012.9 975.6
06 11.07 ЮВ 1
{3}
45 км {ливн. осадки, метель} 10/10 1500 м
[]
+11.5 +1.2 49 +12 +12 1012.6 975.4 +7.0 +13.9
07 11.07 Ю 1
{3}
30 км 10/10 1500 м
[]
+13.2 +2.8 49 +14 +14 1012.2 975.3
08 11.07 СЗ 1
{4}
40 км 4/3 1380 м
[]
+14.3 +2.0 43 +15 +22 1011.7 975.0
09 11.07 СВ 1
{5}
50 км 5/5 1380 м
[]
+14.5 +3.9 49 +15 +22 1011.5 974.8
10 11.07 СВ 2
{6}
45 км 6/6 1470 м
[]
+14.8 +2.9 45 +15 +19 1011.3 974.6
11 11.07 В 2
{6}
40 км 6/6 1500 м
[]
+15.4 +3.2 44 +15 +20 1011.0 974.4
12 11.07 СВ 3
{6}
40 км 5/5 1500 м
[]
+15.7 +3.1 43 +15 +20 1010.9 974.4
13 11.07 СВ 3
{7}
30 км 6/5 1500 м
[]
+16.0 +3.5 43 +16 +19 1010.9 974.4
14 11.07 СВ 3
{7}
40 км 8/8 1500 м
[]
+15.7 +2.4 41 +15 +17 1010.9 974.3
15 11.07 СВ 4
{7}
35 км 9/0 2000 м
[]
+15.9 +2.7 41 +15 +16 1010.8 974.3
16 11.07 С 3
{6}
35 км 10/4 2000 м
[]
+15.9 +3.5 43 +16 +16 1010.8 974.3
17 11.07 СВ 3
{6}
35 км ясно +16.0 +2.7 41 +16 +17 1010.7 974.2
18 11.07 СВ 3
{6}
40 км ясно +15.7 +2.2 40 +15 +16 1010.6 974.1 +11.4 +17.3
19 11.07 В 2
{5}
50 км ясно +14.6 +2.2 43 +15 +15 1011.0 974.3
20 11.07 СВ 1
{4}
50 км ясно +13.1 +2.2 48 +14 +14 1011.5 974.6
21 11.07 В 2
{4}
50 км ясно +11.4 +1.9 52 +11 +11 1012.2 975.0
22 11.07 В 2
{4}
50 км ясно +10.2 +1.4 54 +9 +9 1012.7 975.3
23 11.07 СВ 2
{3}
50 км ясно +8.2 +1.2 61 +7 +7 1013.2 975.6
00 12.07 С 1
{2}
50 км ясно +4.2 +0.7 78 +3 +3 1013.9 975.7
01 12.07 С 2
{2}
50 км ясно +6.6 +0.6 65 +5 +5 1013.5 975.7
02 12.07 С 1
{3}
40 км ясно +7.0 +0.8 65 +6 +7 1013.6 975.8
03 12.07 СВ 2
{3}
50 км ясно +9.0 +1.4 59 +8 +9 1013.3 975.8
04 12.07 СВ 2
{4}
50 км ясно +10.3 +1.5 54 +9 +11 1013.3 976.0
05 12.07 СВ 3
{5}
40 км ясно +11.0 -0.7 44 +10 +12 1013.3 976.0
06 12.07 В 2
{5}
40 км ясно +12.5 +0.6 44 +12 +17 1013.0 976.0 +3.7
07 12.07 СВ 3
{5}
40 км ясно +13.4 +2.0 46 +12 +18 1012.8 975.9
08 12.07 СВ 3
{7}
35 км ясно +13.9 +1.9 44 +13 +20 1012.4 975.6
09 12.07 СВ 4
{8}
30 км 1/1 1500 м
[]
+15.2 +2.5 42 +14 +20 1011.8 975.2
10 12.07 С 4
{8}
35 км ясно +15.9 +3.3 43 +15 +22 1011.2 974.7
11 12.07 С 5
{10}
30 км 1/0
[]
+16.4 +2.9 40 +16 +21 1011.1 974.7
12 12.07 СВ 4
{9}
35 км 1/1 1500 м
[]
+17.3 +3.1 39 +17 +23 1010.6 974.3
13 12.07 СВ 4
{9}
40 км 3/1 1500 м
[]
+17.4 +2.6 37 +17 +22 1010.4 974.1
14 12.07
{9}
40 км 1/0
[]
+17.5 +1.8 35 1010.3 974.0
15 12.07 С 4
{8}
40 км ясно +18.0 +1.4 33 +18 +21 1010.1 973.9
16 12.07 С 4
{8}
35 км ясно +17.8 +0.6 31 +18 +20 1010.1 973.8
17 12.07 СВ 4
{7}
45 км ясно +17.3 +0.4 32 +17 +18 1010.1 973.8
18 12.07 СВ 4
{6}
40 км ясно +16.2 -1.0 31 +16 +16 1010.4 973.9 +12.2 +18.1
19 12.07 С 2
{5}
50 км ясно +13.9 -1.2 35 +14 +14 1011.1 974.3
20 12.07 С 1
{3}
50 км ясно +11.7 -1.3 40 +12 +12 1011.8 974.7
21 12.07 СВ 2
{3}
50 км ясно +10.0 -1.0 46 +9 +9 1012.6 975.2
22 12.07 СВ 2
{3}
50 км ясно +9.4 -0.4 50 +8 +8 1013.3 975.8
23 12.07
{2}
50 км ясно +4.1 -1.3 68 1014.4 976.1
00 13.07 С 2
{3}
50 км ясно +5.2 +0.3 71 +3 +3 1014.5 976.4
01 13.07 С 2
{3}
45 км ясно +6.2 0.0 64 +4 +4 1014.5 976.5
02 13.07 С 1
{2}
50 км ясно +3.9 -0.2 75 +3 +3 1015.1 976.8
03 13.07 С 2
{3}
40 км ясно +8.0 -0.1 57 +6 +7 1014.6 976.9
04 13.07 С 3
{5}
40 км ясно +9.2 -0.1 52 +7 +9 1014.6 977.0
05 13.07 СВ 3
{6}
45 км ясно +10.6 +0.5 50 +9 +12 1014.2 976.9
06 13.07 С 3
{5}
45 км ясно +11.2 -0.1 46 +10 +14 1014.1 976.9 +3.2
07 13.07 СВ 4
{8}
40 км ясно +12.3 -0.8 40 +11 +15 1013.9 976.8
08 13.07 С 4
{7}
40 км ясно +13.3 -1.4 36 +12 +18 1013.7 976.8
09 13.07 СВ 3
{7}
40 км ясно +14.3 -0.3 37 +14 +22 1013.4 976.6
10 13.07 СВ 3
{8}
30 км ясно +15.0 -0.9 34 +15 +23 1013.0 976.3
11 13.07 СВ 4
{8}
40 км ясно +15.6 -1.7 30 +15 +22 1012.7 976.1
12 13.07 С 2
{7}
40 км ясно +16.8 -0.2 31 +17 +27 1012.3 975.9
13 13.07 С 3
{6}
35 км ясно +16.8 -0.6 31 +17 +24 1012.1 975.7
14 13.07 СВ 2
{6}
45 км ясно +16.5 -3.3 26 +17 +24 1012.1 975.6
15 13.07 СВ 2
{6}
40 км ясно +17.0 -3.0 25 +17 +22 1011.9 975.5
16 13.07 В 2
{5}
35 км ясно +16.9 -2.7 26 +17 +20 1011.9 975.5
17 13.07 В 2
{5}
50 км ясно +16.2 +1.3 36 +16 +18 1011.7 975.2
18 13.07 ЮВ 2
{3}
50 км 10/0 2000 м
[]
+16.0 +2.3 40 +16 +16 1011.9 975.4 +11.2 +18.0
19 13.07 ЮВ 2
{6}
50 км 10/5 2000 м
[]
+13.6 +4.7 55 +13 +13 1012.6 975.7
20 13.07 штиль 0
{3}
50 км 10/5 2000 м
[]
+12.8 +4.4 57 +13 +13 1013.2 976.2
21 13.07 штиль 0
{1}
40 км 10/0
[]
+11.7 +4.3 60 +11 +11 1013.4 976.3
22 13.07 Ю 1
{1}
50 км 9/3 2000 м
[]
+10.0 +4.3 68 +10 +10 1013.7 976.3
23 13.07 ЮВ 1
{2}
50 км 6/5 2000 м
[]
+8.9 +4.4 73 +8 +8 1013.9 976.3
00 14.07 ЮВ 1
{1}
50 км 10/0 2000 м
[]
+8.3 +3.9 74 +8 +8 1014.1 976.4
01 14.07 Ю 1
{2}
50 км 10/10 2000 м
[]
+9.2 +4.4 72 +9 +9 1014.0 976.5
02 14.07 Ю 1
{2}
50 км 10/10
[]
+9.9 +5.3 73 +10 +10 1013.6 976.2
03 14.07 Ю 1
{2}
50 км 10/0 2000 м
[]
+10.5 +5.5 71 +10 +10 1013.6 976.3
04 14.07 Ю 2
{3}
50 км 10/10
[]
+10.9 +5.7 70 +10 +10 1013.4 976.2
05 14.07 Ю 2
{3}
50 км 10/8
[]
+11.4 +5.7 68 +10 +11 1013.4 976.2
06 14.07 Ю 2
{4}
30 км 9/0
[]
+13.1 +6.5 64 +13 +14 1012.9 976.0 +7.9
07 14.07 Ю 3
{5}
30 км 10/8 1200 м
[]
+13.7 +6.3 61 +13 +13 1012.8 975.9
08 14.07 Ю 2
{5}
45 км 10/10 930 м
[]
+13.7 +6.1 60 +13 +13 1012.6 975.8
09 14.07 Ю 2
{4}
50 км 10/10 930 м
[]
+14.4 +6.9 61 +14 +15 1012.3 975.6
10 14.07 Ю 2
{5}
22 км слаб. ливневой дождь 9/3 930 м
[]
+12.2 +8.1 76 +11 +15 1012.7 975.6
11 14.07 ЮВ 2
{4}
40 км в посл. час дождь {ливн. осадки, метель} 10/8 1170 м
[]
+13.6 +7.4 66 +13 +14 1012.2 975.3 0.0
12 14.07 СВ 1
{4}
2900 м сильн. дождь {ливн. осадки} ?/? +11.5 +8.6 82 +11 +11 1012.6 975.4 3
13 14.07 СВ 5
{8}
30 км в посл. час дождь {метель} 10/5 270 м
[]
+12.5 +9.9 84 +10 +11 1012.4 975.4 0.6
14 14.07 СВ 4
{8}
45 км {дождь, метель} 10/3 270 м
[]
+10.8 +8.2 84 +8 +10 1013.1 975.9
15 14.07 СВ 3
{6}
12 км слаб. ливневой дождь ?/? +10.5 +8.6 88 +8 +8 1013.2 975.9 0.3
16 14.07 В 3
{6}
30 км в посл. час дождь {ливн. осадки} 10/3 360 м
[]
+11.6 +7.6 76 +10 +11 1012.8 975.7 0.0
17 14.07 В 1
{5}
45 км {ливн. осадки, дождь} 6/3 500 м
[]
+11.3 +6.6 73 +11 +12 1012.7 975.5
18 14.07 В 2
{4}
50 км {ливн. осадки, дождь} 10/10 630 м
[]
+11.8 +5.9 67 +11 +11 1012.7 975.6 +10.1 +14.6
19 14.07 СВ 2
{4}
50 км 8/1 570 м
[]
+11.4 +5.3 66 +10 +11 1012.6 975.4
20 14.07 В 2
{4}
50 км 8/6 2000 м
[]
+10.2 +5.5 73 +9 +9 1012.7 975.3
21 14.07 СВ 1
{4}
50 км 10/0 2000 м
[]
+9.2 +5.5 78 +9 +9 1013.2 975.7
22 14.07 штиль 0
{2}
50 км 10/10 1500 м
[]
+8.0 +4.9 81 +7 +7 1013.2 975.5
23 14.07 штиль 0
{1}
35 км 10/10 1500 м
[]
+7.6 +4.5 81 +7 +7 1013.0 975.3
00 15.07 С 1
{2}
40 км 10/10 570 м
[]
+8.4 +5.6 83 +8 +8 1013.0 975.4
01 15.07 штиль 0
{2}
50 км 10/3 630 м
[]
+8.5 +5.2 80 +8 +8 1013.0 975.4
02 15.07 В 1
{2}
50 км 10/10 1350 м
[]
+8.3 +4.7 78 +8 +8 1013.0 975.4
03 15.07 В 1
{3}
35 км слаб. ливневой дождь 10/10 630 м
[]
+8.1 +5.1 81 +7 +8 1013.1 975.5 0.0
04 15.07 В 1
{2}
40 км в посл. час дождь {ливн. осадки} 10/1 1200 м
[]
+8.5 +4.4 75 +8 +9 1013.1 975.5 0.0
05 15.07 штиль 0
{3}
50 км {ливн. осадки, дождь} 10/10 800 м
[]
+8.6 +4.1 73 +8 +8 1013.2 975.6
06 15.07 СВ 1
{3}
50 км в посл. час дождь {ливн. осадки} ?/? +8.4 +5.2 80 +8 +8 1013.3 975.6 +7.4 +12.1 0.3
07 15.07 В 2
{3}
18 км слаб. ливневой дождь {метель} ?/? +8.4 +5.4 81 +7 +7 1013.1 975.5 0.2
08 15.07 В 3
{4}
45 км в посл. час дождь {ливн. осадки, метель} 10/10 1470 м
[]
+9.9 +4.9 71 +8 +8 1012.9 975.6 0.1
09 15.07 В 2
{4}
50 км {ливн. осадки, метель} 10/10 1440 м
[]
+10.8 +4.0 63 +10 +10 1012.8 975.5
10 15.07 В 2
{4}
45 км {ливн. осадки, метель} 10/3 900 м
[]
+11.1 +2.8 57 +10 +14 1012.7 975.5
11 15.07 ЮЗ 1
{3}
30 км {ливн. осадки, метель} 8/8 1500 м
[]
+12.4 +3.6 55 +13 +15 1012.3 975.3
12 15.07 штиль 0
{3}
50 км {ливн. осадки, метель} 10/10 1050 м
[]
+12.0 +3.2 55 +12 +12 1012.4 975.4
13 15.07 штиль 0
{3}
50 км 10/1 1200 м
[]
+12.3 +4.1 57 +12 +17 1012.5 975.4
14 15.07 С 1
{3}
35 км 10/1 900 м
[]
+12.1 +5.1 62 +12 +16 1012.5 975.4
15 15.07 СВ 3
{4}
30 км 10/10 1050 м
[]
+12.1 +5.3 63 +11 +12 1012.4 975.3
16 15.07 СВ 2
{5}
40 км 10/10 1500 м
[]
+11.5 +5.0 64 +11 +11 1012.7 975.5
17 15.07 СВ 1
{4}
17 км слаб. дождь 10/10 1200 м
[]
+11.1 +6.4 73 +11 +11 1012.9 975.7 0.0
18 15.07 В 1
{3}
50 км в посл. час дождь {ливн. осадки} 10/10 1350 м
[]
+11.0 +4.0 62 +11 +11 1012.8 975.6 +8.1 +12.7 0.0
19 15.07 штиль 0
{2}
29 км слаб. дождь 10/10 1230 м
[]
+10.6 +4.8 67 +10 +10 1013.1 975.8
20 15.07 СВ 3
{5}
50 км в посл. час дождь {ливн. осадки} 10/10 1260 м
[]
+9.9 +5.7 75 +8 +8 1013.4 976.0 0.0
21 15.07 штиль 0
{3}
50 км {ливн. осадки, дождь} 10/10 1350 м
[]
+9.2 +5.3 77 +9 +9 1013.7 976.2
22 15.07 С 1
{3}
45 км слаб. ливневой дождь 10/1 60 м
[]
+8.9 +5.4 79 +8 +8 1013.9 976.3
23 15.07 С 1
{2}
50 км в посл. час дождь {ливн. осадки} 10/10 60 м
[]
+8.4 +5.4 81 +8 +8 1014.2 976.6 0.0
00 16.07 С 2
{3}
50 км {ливн. осадки, дождь} 10/0 2000 м
[]
+8.1 +4.9 80 +6 +6 1014.3 976.6
01 16.07 С 1
{2}
50 км 10/9
[]
+7.3 +4.6 83 +6 +6 1014.5 976.7
02 16.07 С 1
{2}
50 км 10/10 2000 м
[]
+7.5 +4.7 82 +7 +7 1014.6 976.8
03 16.07 С 1
{3}
45 км 10/0 2000 м
[]
+8.6 +5.9 83 +8 +8 1014.6 977.0
04 16.07 СВ 2
{4}
40 км 10/3 1500 м
[]
+9.4 +6.0 79 +8 +8 1014.7 977.2
05 16.07 СВ 2
{3}
40 км 10/10 2000 м
[]
+9.8 +5.6 75 +8 +8 1014.8 977.3
06 16.07 СВ 1
{3}
40 км 10/0 2000 м
[]
+10.3 +5.5 72 +10 +10 1014.8 977.4 +7.2 +11.0
07 16.07 В 1
{2}
35 км 10/1 570 м
[]
+10.8 +4.6 66 +11 +14 1014.7 977.4
08 16.07 СВ 1
{4}
40 км 10/10
[]
+12.1 +4.4 59 +12 +12 1014.5 977.3
09 16.07 В 1
{3}
30 км 9/0
[]
+13.3 +3.6 52 +14 +15 1014.0 977.1
10 16.07
{4}
40 км 10/5 1080 м
[]
+12.8 +4.1 55 1014.1 977.0
11 16.07 С 2
{4}
40 км 10/5 1260 м
[]
+13.5 +3.1 49 +13 +16 1013.9 977.0
12 16.07 В 2
{5}
35 км слаб. ливневой дождь 9/9 1300 м
[]
+13.4 +3.6 51 +13 +14 1013.9 977.0 0.0
13 16.07 В 2
{6}
40 км слаб. ливневой дождь {метель} 10/1 30 м
[]
+13.6 +5.5 58 +13 +17 1014.0 977.0 0.1
14 16.07 С 2
{7}
11 км ливневой дождь {метель} 10/10 1170 м
[]
+11.7 +6.8 72 +11 +11 1014.4 977.2 0.2
15 16.07 СВ 1
{2}
40 км в посл. час дождь {ливн. осадки, метель} 9/9 1440 м
[]
+13.5 +4.4 54 +14 +16 1014.2 977.2 0.0
17 16.07 С 1
{3}
45 км {ливн. осадки, метель} 10/1 1500 м
[]
+12.4 +3.3 54 +13 +14 1014.4 977.3
18 16.07 СЗ 1
{2}
50 км {ливн. осадки, метель} 9/0 2000 м
[]
+12.2 +4.2 58 +12 +13 1014.5 977.4 +14.5
19 16.07 С 1
{2}
50 км 10/8 2000 м
[]
+11.0 +5.1 67 +11 +11 1014.7 977.3
20 16.07 СВ 1
{2}
50 км 10/9 2000 м
[]
+10.0 +4.2 67 +10 +10 1014.9 977.5
21 16.07 СВ 2
{2}
50 км 6/0 2000 м
[]
+8.9 +3.7 70 +7 +7 1015.2 977.6
22 16.07 СВ 2
{3}
50 км 4/0
[]
+8.3 +2.9 69 +7 +7 1015.4 977.7
23 16.07 СВ 2
{4}
50 км ясно +7.8 +2.7 70 +6 +6 1015.7 977.9

 

Местоположение метеостанции Паркаломполо (Швеция): широта 67.73 долгота 22.83 высота над уровнем моря 313 м.

В архиве по умолчанию представлена погода в Паркаломполо за последнюю неделю. Архивные данные за месяц целиком и за предыдущие месяцы, начиная с января 2011 года, Вы можете получить, выбрав интересующий диапазон дат из раскрывающегося списка и нажав кнопку "Ввод!".


*Определитесь, кто Вы:
робот инопланетянин человек

Внимание! Время в таблицах - всемирное. Для получения местного времени необходимо прибавить поправку, которая равна 1 ч.

Смотрите также архив погоды в соседних городах и на ближайших метеорологических станциях:

Погода в Муонио Аламуонио (Финляндия) (46 км)
Погода в Саиттарове (Швеция) (51 км)
Погода в Недре Сопперо (Швеция) (57 км)
Погода в Муонио Саммалтунтури (Финляндия) (60 км)
Погода в Муонио Лаукукеро (Финляндия) (62 км)
Погода в Паджала аэропорту (Швеция) (63 км)
Погода в Киттиля Ломполонвуома (Финляндия) (65 км)
Погода в Киттила Кенттарова (Финляндия) (66 км)
Погода в Киттила Маторова (Финляндия) (66 км)
Погода в Каресуандо (Швеция) (82 км)

Пояснения к столбцам:

Ветер - указаны скорость ветра в м/с - средняя за 10 мин, порывы в срок и между сроками (в фигурных скобках) и направление, откуда дует ветер: С - северный, СВ - северо-восточный, В - восточный, ЮВ - юго-восточный, Ю - южный, ЮЗ - юго-западный, З - западный, СЗ - северо-западный.
Видимость - горизонтальная дальность видимости в метрах или километрах. При видимости от 1 до 10 км при отсутствии осадков обычно наблюдается дымка, при ухудшении видимости до 1 км и менее - туман. В сухую погоду видимость может ухудшаться дымом, пылью или мглою.
Явления - указаны атмосферные явления, наблюдавшиеся в срок или в последний час перед сроком; фигурными скобками обозначены явления, наблюдавшиеся между сроками (за 1-3 часа до срока); квадратными скобками обозначены град или гололедные отложения с указанием их диаметра в мм.
Облачность - указаны через наклонную черту общая и нижняя облачность в баллах и высота нижней границы облаков в метрах; квадратными скобками обозначены формы облаков: Ci - перистые, Cs - перисто-слоистые, Cc - перисто-кучевые, Ac - высококучевые, As - высокослоистые, Sc - слоисто-кучевые, Ns - слоисто-дождевые, Cu - кучевые, Cb - кучево-дождевые. Подробнее классификацию облаков см. в Атласе облаков (PDF).
T - Температура воздуха - температура, измеренная на высоте 2 м над землей.
Td - Температура точки росы - температура, при понижении до которой содержащийся в воздухе водяной пар достигнет насыщения.
f - Относительная влажность воздуха - влажноcть воздуха, измеренная на высоте 2 м над землей.
Te - Эффективная температура - температура, которую ощущает одетый по сезону человек в тени. Характеристика душности погоды. При расчете учитывается влияние влажности воздуха и скорости ветра на теплоощущения человека.
Tes - Эффективная температура на солнце - температура, которую ощущает человек, с поправкой на солнечный нагрев. Характеристика знойности погоды. Зависит от высоты солнца над горизонтом, облачности и скорости ветра. Ночью, в пасмурную погоду, а также при ветре 12 м/с и более поправка равна нулю.
P - Атмосферное давление - приведенное к уровню моря атмосферное давление.
Po - Атмосферное давление - измеренное на уровне метеостанции атмосферное давление.
Tmin - Минимальная температура - минимум температуры воздуха на высоте 2 м над землей.
Tmax - Максимальная температура - максимум температуры воздуха на высоте 2 м над землей.
R - Количество осадков - Количество выпавших осадков за период времени, мм. При наведении курсора мыши на число - период времени, за который выпало указанное количество осадков.
R24 - Количество осадков - Количество выпавших осадков за 24 часа, мм.
S - Снежный покров - Высота снежного покрова, см. При наведении курсора мыши на число - состояние снежного покрова и степень покрытия местности в баллах.